Location: Henham
(51.9333°N, 0.2500°E)
Time: 19:18:27
(UTC+00:00)

CORIOLIS - Pass Details

Date: 23 October 2019
Orbit: 819 x 838 km, 98.7° (Epoch: 12 November)

Event Time Altitude Azimuth Distance (km) Brightness Sun altitude
Rises 17:13:28 0° 160° (SSE) 3,340 7.2 -4.5°
Reaches altitude 10° 17:15:47 10° 160° (SSE) 2,413 6.5 -4.8°
Maximum altitude 17:21:08 84° 72° (ENE) 835 4.2 -5.6°
Drops below altitude 10° 17:26:33 10° 346° (NNW) 2,440 6.7 -6.5°
Sets 17:28:55 0° 346° (NNW) 3,380 7.4 -6.8°
